Tracking 19192 objects as of 20-Jun-2018
HD Live streaming from Space Station
objects crossing your sky now

OSCAR 36 (UOSAT 12)

Track OSCAR 36 (UOSAT 12) now!
10-day predictions
OSCAR 36 (UOSAT 12) is classified as:


NORAD ID: 25693
Int'l Code: 1999-021A
Perigee: 599.5 km
Apogee: 668.3 km
Inclination: 64.6 °
Period: 97.2 minutes
Semi major axis: 7004 km
RCS: 1.4285 m2 (large)
Launch date: April 21, 1999
Source: United Kingdom (UK)
Launch site: TYURATAM MISSILE AND SPACE COMPLEX (TTMTR)
Uplink (MHz): 145.960
Downlink (MHz): 437.400/437.025
Beacon (MHz): 437.400
Mode: 38400bps FSK
Call sign: UO121-11 -12
Status: Inactive


Used for email and communication services to remote areas.
aabbcc
Your satellite tracking list
Your tracking list is empty




NASA's NSSDC Master Catalog

Two Line Element Set (TLE):
1 25693U 99021A   18170.92123957 -.00000094 +00000-0 +71572-5 0  9992
2 25693 064.5567 072.2301 0049092 264.2347 095.3160 14.80801411034309
Source of the keplerian elements: AFSPC